Home > Weather > Fredericton > Past weeks

Flag for Canada Weather for the Past 2 Weeks in Fredericton, New Brunswick, Canada

Now
39 °F

Mostly cloudy.


Feels Like: 34 °F
Forecast: 34 / 54 °F
Wind: 7 mph from Northeast

Location: Fredericton

Current Time: May 4, 2016 at 9:04:13 AM

Latest Report: May 4, 2016 at 8:00 AM


Visibility: 9 mi

Pressure: 29.95 "Hg

Humidity: 87%

Dew Point: 36 °F

Location of FrederictonLocation

Historic Weather in Fredericton — Graph

°F

Fredericton Temperature Yesterday

Maximum temperature yesterday: 46 °F (at 3:00 PM)
Minimum temperature yesterday: 41 °F (at 4:00 AM)
Average temperature yesterday: 43 °F

High & Low Weather Summary for the Past Weeks

 TemperatureHumidityPressure
High75 °F (Apr 22, 4:00 PM)93% (Apr 22, 7:00 AM)30.27 "Hg (Apr 22, 7:00 AM)
Low19 °F (Apr 27, 6:00 AM)13% (Apr 30, 6:00 PM)29.71 "Hg (Apr 26, 7:00 PM)
Average44 °F50%29.96 "Hg
* Reported Apr 19 7:00 AM — May 4 7:00 AM, Fredericton, Weather by CustomWeather, © 2016

Note: Actual official high and low records may vary slightly from our data, if they occured in-between our weather recording intervals... More about our weather records

Advertising

Fredericton Weather History for the Previous 24 Hours

Scroll right to see more
 ConditionsComfort  
Time TempWeatherWind HumidityBarometerVisibility
7:00 AM
Wed, May 4
39 °FOvercast.5 mph87%29.94 "Hg9 mi
6:00 AM37 °FMostly cloudy.5 mph93%29.92 "Hg9 mi
5:00 AM37 °FOvercast.6 mph93%29.93 "Hg9 mi
4:00 AM37 °FOvercast.6 mph93%29.92 "Hg9 mi
3:00 AM37 °FOvercast.8 mph93%29.92 "Hg9 mi
2:00 AM39 °FOvercast.8 mph87%29.91 "Hg9 mi
1:00 AM39 °FLow clouds.10 mph93%29.91 "Hg9 mi
12:00 AM41 °FLight rain. Fog.10 mph93%29.91 "Hg6 mi
11:59 PM
Tue, May 3
41 °FLight rain. Fog.10 mph93%29.91 "Hg6 mi
11:01 PM41 °FLight rain. Fog.6 mph93%29.91 "Hg4 mi
10:00 PM43 °FMostly cloudy.9 mph87%29.91 "Hg9 mi
9:00 PM45 °FMostly cloudy.8 mph81%29.89 "Hg9 mi
8:00 PM46 °FMostly cloudy.12 mph76%29.88 "Hg9 mi
7:45 PM46 °FMostly cloudy.10 mph76%29.88 "Hg9 mi
7:00 PM46 °FMostly cloudy.8 mph76%29.87 "Hg9 mi
6:00 PM46 °FMostly cloudy.9 mph76%29.87 "Hg9 mi
5:00 PM46 °FMostly cloudy.9 mph76%29.87 "Hg9 mi
4:00 PM46 °FOvercast.8 mph76%29.87 "Hg9 mi
3:00 PM46 °FOvercast.14 mph76%29.87 "Hg9 mi
2:04 PM45 °FLight rain. Overcast.10 mph87%29.87 "Hg8 mi
1:00 PM45 °FOvercast.9 mph87%29.87 "Hg9 mi
12:53 PM45 °FOvercast.7 mph87%29.88 "Hg9 mi
12:00 PM45 °FFog.9 mph87%29.88 "Hg5 mi
11:53 AM43 °FFog.9 mph93%29.88 "Hg4 mi
11:00 AM45 °FOvercast.9 mph87%29.88 "Hg9 mi
10:00 AM43 °FOvercast.8 mph93%29.86 "Hg9 mi
9:50 AM43 °FOvercast.12 mph93%29.86 "Hg9 mi
9:00 AM43 °FLow clouds.12 mph87%29.85 "Hg7 mi
Weather by CustomWeather, © 2016

See weather overviewHow to use our weather pages